Regional Weather Roundup
Issued by NWS

Home | Current Version | Previous Version | Graphics & Text | Print | Product List | Glossary On
Versions: 1 2 3 4 5 6 7 8 9 10 11 12 13 14 15 16 17 18 19 20 21 22 23 24 25 26 27 28 29 30 31 32 33 34 35 36 37 38 39 40 41 42 43 44 45 46 47 48 49 50
000
ASUS43 KLOT 271408
RWRIL

ILLINOIS REGIONAL WEATHER ROUNDUP
NATIONAL WEATHER SERVICE CHICAGO/ROMEOVILLE IL
900 AM CDT MON MAR 27 2017

NOTE: "FAIR" INDICATES FEW OR NO CLOUDS BELOW 12,000 FEET WITH NO
SIGNIFICANT WEATHER AND/OR OBSTRUCTIONS TO VISIBILITY.

* THESE STATIONS ARE NOT UNDER NWS QUALITY CONTROL. THEY ALSO MAY NOT
  REPORT WEATHER SUCH AS PRECIPITATION OR FOG.

ILZ001-002-007-009-015-016-024-271500-
NORTHWEST ILLINOIS

CITY           SKY/WX    TMP DP  RH WIND       PRES   REMARKS
MOLINE         CLOUDY    49  45  86 NE6       29.92S FOG
STERLING*      CLOUDY    48  46  93 N5        29.94R
SAVANNA*       CLOUDY    46  43  90 N6        29.94S
$$

ILZ003-004-008-010-011-017-018-271500-
NORTH CENTRAL ILLINOIS

CITY           SKY/WX    TMP DP  RH WIND       PRES   REMARKS
ROCKFORD       CLOUDY    47  42  83 N3        29.96R
FREEPORT*      CLOUDY    44  43  98 N5        29.96R
ROCHELLE*      CLOUDY    46  46 100 N7        29.94S FOG
DE KALB*       FOG       46  46  99 CALM      29.95R VSB<1/4
PERU*          CLOUDY    47  46  96 CALM      29.94R FOG
$$

ILZ005-006-012>014-019>023-271500-
NORTHEAST ILLINOIS

CITY           SKY/WX    TMP DP  RH WIND       PRES   REMARKS
CHICAGO-OHARE  DRIZZLE   48  45  89 NE7       29.93R
CHICAGO-MIDWAY CLOUDY    50  48  93 CALM      29.93S
AURORA         CLOUDY    49  47  93 CALM      29.94R FOG
LANSING*       CLOUDY    50  49  96 NW5       29.94S
JOLIET*        CLOUDY    51  49  93 CALM      29.94S
WAUKEGAN       CLOUDY    44  42  93 CALM      29.95R
DUPAGE AIRPORT FOG       48  48 100 N7        29.93R VSB 1/4
KANKAKEE*      CLOUDY    51  50  97 CALM      29.95S
WHEELING       CLOUDY    47  44  90 NE3       29.95R
MORRIS*        CLOUDY    49  46  90 CALM      29.93S
ROMEOVILLE*    CLOUDY    49  49  99 CALM      29.93S
$$

LMZ740>746-271500-
SOUTHERN LAKE MICHIGAN

STATION/POSITION SKY/WX   TEMP    WIND        PRES    VSBY  WAVE
                          AIR SEA DIR/SP/G                  HT/PER
                          (F)     (DEG/KT/KT) (MB)    (MI)  (FT/S)
HARRISON CRIB              40      40/  5/  6   N/A
BURNHAM HARBOR             41     360/  5       N/A
CALUMET HARBOR             43     350/  4/  5 1013.4R
BURNS HARBOR               48     260/  5/  7 1014.6
MICHIGAN CITY              45     300/  6/  6   N/A
$$

ILZ025>027-034>036-040-047-049-050-058-095>099-271500-
WEST-CENTRAL ILLINOIS

CITY           SKY/WX    TMP DP  RH WIND       PRES   REMARKS
QUINCY         LGT RAIN  48  47  96 E8        29.90F FOG
GALESBURG*     CLOUDY    47  47  99 N3        29.91F FOG
MACOMB*        LGT RAIN  47  47 100 E6        29.95S
JACKSONVILLE*  LGT RAIN  47  46  96 NE6       29.91F
PITTSFIELD*    DRIZZLE   48  47  97 NE6       29.91F
$$

ILZ028>032-037-038-041>044-048-051>054-059>061-271500-
CENTRAL ILLINOIS

CITY           SKY/WX    TMP DP  RH WIND       PRES   REMARKS
PONTIAC        CLOUDY    49  49  99 NE3       29.94R FOG
BLOOMINGTON    CLOUDY    48  47  96 E8        29.93F
DECATUR        CLOUDY    49  46  90 E8        29.91F FOG
PEORIA         LGT RAIN  49  47  93 NE3       29.92F
LACON*         LGT RAIN  47  46  96 CALM      29.93S
LINCOLN*       CLOUDY    49  49  99 E3        29.93S FOG
SPRINGFIELD    LGT RAIN  50  47  89 NE7       29.91F
TAYLORVILLE    CLOUDY    48  46  93 SE8       29.93R FOG
$$

ILZ033-039-045-046-055>057-062-063-271500-
EAST-CENTRAL ILLINOIS

CITY           SKY/WX    TMP DP  RH WIND       PRES   REMARKS
CHAMPAIGN      CLOUDY    51  47  86 E8        29.94S
RANTOUL*       PTSUNNY   52  50  93 E3        29.93F FOG
MATTOON        CLOUDY    50  49  96 E6        29.91F FOG
PARIS*         CLOUDY    51  50  95 E5        29.95S
$$

ILZ079-100>102-271500-
SOUTHWEST ILLINOIS

CITY           SKY/WX    TMP DP  RH WIND       PRES   REMARKS
ALTON          CLOUDY    50  48  93 NE8       29.89S
BELLEVILLE     LGT RAIN  51  51 100 N6        29.84S
CAHOKIA*       LGT RAIN  52  50  93 N7        29.86R FOG
SPARTA*        CLOUDY    55  52  92 SE9       29.84F
$$

ILZ064>066-069>071-074>076-080>082-084>086-088>090-092>094-271500-
SOUTH-CENTRAL ILLINOIS

CITY           SKY/WX    TMP DP  RH WIND       PRES   REMARKS
CARBONDALE     CLOUDY    55  54  96 E15       29.83F
CAIRO*         CLOUDY    60  56  87 S10G17    29.87R
EFFINGHAM*     CLOUDY    50  49  97 E6        29.95R
MARION         CLOUDY    55  55 100 E9        29.87F
MT. VERNON     LGT RAIN  54  52  93 SE10      29.88F
CENTRALIA*     CLOUDY    54  53  94 E7        29.85F
SALEM*         CLOUDY    54  49  83 SE7       29.90F
METROPOLIS*    CLOUDY    59  56  89 S3        29.89R
$$

ILZ067-068-072-073-078-083-087-091-271500-
SOUTHEAST ILLINOIS

CITY           SKY/WX    TMP DP  RH WIND       PRES   REMARKS
LAWRENCEVILLE  CLOUDY    52  50  93 SE8       29.94S
FLORA*         CLOUDY    53  50  87 SE8       29.93R
FAIRFIELD*     LGT RAIN  52  51  97 SE3       29.91F
HARRISBURG*    CLOUDY    55  53  94 E7        29.89F
ROBINSON*      CLOUDY    49  48  95 SE5       29.94S
CARMI*         RAIN      53  52  96 E12       29.92F
$$

ABBREVIATIONS USED IN REMARKS
   TC - TEMPERATURE IN CELSIUS
  WCI - WIND CHILL INDEX
   HX - HEAT INDEX
  VSB - VISIBILITY
$$




USA.gov is the U.S. government's official web portal to all federal, state and local government web resources and services.